Time,TemperatureF,DewpointF,PressureIn,WindDirection,WindDirectionDegrees,WindSpeedMPH,WindSpeedGustMPH,Humidity,HourlyPrecipIn,Conditions,Clouds,dailyrainin,SolarRadiationWatts/m^2,SoftwareType,DateUTC
2017-07-22 00:12:00,61.9,54.0,29.94,NNW,338,0.0,1.0,76,0.00,,,0.00,0,weatherlink.com 1.10,2017-07-22 07:12:00,
2017-07-22 00:27:00,61.4,54.0,29.94,NNW,338,0.0,0.0,76,0.00,,,0.00,0,weatherlink.com 1.10,2017-07-22 07:27:00,
2017-07-22 00:42:00,60.8,54.0,29.94,NNW,338,0.0,0.0,77,0.00,,,0.00,0,weatherlink.com 1.10,2017-07-22 07:42:00,
2017-07-22 00:57:00,60.3,53.0,29.94,NNW,338,0.0,0.0,78,0.00,,,0.00,0,weatherlink.com 1.10,2017-07-22 07:57:00,
2017-07-22 01:12:00,59.9,53.0,29.93,NNW,338,0.0,0.0,78,0.00,,,0.00,0,weatherlink.com 1.10,2017-07-22 08:12:00,
2017-07-22 01:27:00,60.0,53.0,29.93,NNW,338,0.0,1.0,78,0.00,,,0.00,0,weatherlink.com 1.10,2017-07-22 08:27:00,
2017-07-22 01:42:00,59.8,53.0,29.93,NNW,338,0.0,1.0,78,0.00,,,0.00,0,weatherlink.com 1.10,2017-07-22 08:42:00,
2017-07-22 01:57:00,59.6,53.0,29.93,NNW,338,0.0,0.0,79,0.00,,,0.00,0,weatherlink.com 1.10,2017-07-22 08:57:00,
2017-07-22 02:12:00,59.4,53.0,29.92,NNW,338,1.0,1.0,79,0.00,,,0.00,0,weatherlink.com 1.10,2017-07-22 09:12:00,
2017-07-22 02:27:00,59.3,53.0,29.91,NNW,338,0.0,0.0,79,0.00,,,0.00,0,weatherlink.com 1.10,2017-07-22 09:27:00,
2017-07-22 02:42:00,59.1,53.0,29.92,NNW,338,0.0,0.0,80,0.00,,,0.00,0,weatherlink.com 1.10,2017-07-22 09:42:00,
2017-07-22 02:57:00,58.9,53.0,29.92,NNW,338,0.0,0.0,80,0.00,,,0.00,0,weatherlink.com 1.10,2017-07-22 09:57:00,
2017-07-22 03:12:00,58.5,52.0,29.91,NNW,338,0.0,0.0,80,0.00,,,0.00,0,weatherlink.com 1.10,2017-07-22 10:12:00,
2017-07-22 03:27:00,58.2,52.0,29.91,NNW,338,0.0,0.0,80,0.00,,,0.00,0,weatherlink.com 1.10,2017-07-22 10:27:00,
2017-07-22 03:42:00,58.0,52.0,29.91,NNW,338,0.0,0.0,81,0.00,,,0.00,0,weatherlink.com 1.10,2017-07-22 10:42:00,
2017-07-22 03:57:00,58.0,52.0,29.91,NNW,338,0.0,0.0,81,0.00,,,0.00,0,weatherlink.com 1.10,2017-07-22 10:57:00,
2017-07-22 04:12:00,57.6,52.0,29.91,NNW,338,0.0,0.0,81,0.00,,,0.00,0,weatherlink.com 1.10,2017-07-22 11:12:00,
2017-07-22 04:28:00,57.2,51.0,29.91,NNW,338,0.0,2.0,81,0.00,,,0.00,0,weatherlink.com 1.10,2017-07-22 11:28:00,
2017-07-22 04:42:00,56.9,51.0,29.91,NNW,338,0.0,3.0,81,0.00,,,0.00,0,weatherlink.com 1.10,2017-07-22 11:42:00,
2017-07-22 04:58:00,56.7,51.0,29.91,NNW,338,0.0,1.0,82,0.00,,,0.00,0,weatherlink.com 1.10,2017-07-22 11:58:00,
2017-07-22 05:13:00,56.6,51.0,29.91,NNW,338,0.0,2.0,82,0.00,,,0.00,0,weatherlink.com 1.10,2017-07-22 12:13:00,
2017-07-22 05:28:00,56.2,51.0,29.91,NNW,338,0.0,4.0,82,0.00,,,0.00,0,weatherlink.com 1.10,2017-07-22 12:28:00,
2017-07-22 05:43:00,56.0,51.0,29.91,NNW,338,0.0,2.0,83,0.00,,,0.00,0,weatherlink.com 1.10,2017-07-22 12:43:00,
2017-07-22 05:58:00,56.0,51.0,29.91,NNW,338,0.0,2.0,83,0.00,,,0.00,0,weatherlink.com 1.10,2017-07-22 12:58:00,
2017-07-22 06:13:00,55.9,51.0,29.91,NNW,338,0.0,1.0,83,0.00,,,0.00,7,weatherlink.com 1.10,2017-07-22 13:13:00,
2017-07-22 06:28:00,55.8,51.0,29.91,NNW,338,0.0,1.0,83,0.00,,,0.00,16,weatherlink.com 1.10,2017-07-22 13:28:00,
2017-07-22 06:43:00,56.0,51.0,29.92,NNW,338,0.0,1.0,83,0.00,,,0.00,21,weatherlink.com 1.10,2017-07-22 13:43:00,
2017-07-22 06:58:00,56.5,51.0,29.92,NNW,338,0.0,2.0,82,0.00,,,0.00,60,weatherlink.com 1.10,2017-07-22 13:58:00,
2017-07-22 07:13:00,57.3,52.0,29.93,NNW,338,2.0,3.0,81,0.00,,,0.00,88,weatherlink.com 1.10,2017-07-22 14:13:00,
2017-07-22 07:28:00,58.4,52.0,29.93,NNW,338,1.0,3.0,80,0.00,,,0.00,202,weatherlink.com 1.10,2017-07-22 14:28:00,
2017-07-22 07:43:00,59.7,53.0,29.93,NNW,338,0.0,1.0,79,0.00,,,0.00,255,weatherlink.com 1.10,2017-07-22 14:43:00,
2017-07-22 07:58:00,61.5,54.0,29.93,NNW,338,0.0,3.0,76,0.00,,,0.00,306,weatherlink.com 1.10,2017-07-22 14:58:00,
2017-07-22 08:13:00,63.5,55.0,29.94,NNW,338,1.0,2.0,74,0.00,,,0.00,357,weatherlink.com 1.10,2017-07-22 15:13:00,
2017-07-22 08:28:00,64.9,55.0,29.93,NE,51,2.0,4.0,71,0.00,,,0.00,406,weatherlink.com 1.10,2017-07-22 15:28:00,
2017-07-22 08:43:00,66.1,56.0,29.93,NE,51,0.0,2.0,69,0.00,,,0.00,450,weatherlink.com 1.10,2017-07-22 15:43:00,
2017-07-22 08:58:00,67.8,56.0,29.93,NE,51,1.0,2.0,66,0.00,,,0.00,499,weatherlink.com 1.10,2017-07-22 15:58:00,
2017-07-22 09:14:00,68.9,56.0,29.93,SE,146,1.0,4.0,64,0.00,,,0.00,545,weatherlink.com 1.10,2017-07-22 16:14:00,
2017-07-22 09:29:00,70.1,56.0,29.93,SE,136,3.0,4.0,62,0.00,,,0.00,589,weatherlink.com 1.10,2017-07-22 16:29:00,
2017-07-22 09:44:00,72.3,57.0,29.92,SE,133,0.0,2.0,59,0.00,,,0.00,629,weatherlink.com 1.10,2017-07-22 16:44:00,
2017-07-22 09:59:00,73.7,57.0,29.92,East,97,2.0,4.0,56,0.00,,,0.00,668,weatherlink.com 1.10,2017-07-22 16:59:00,
2017-07-22 10:14:00,75.2,57.0,29.92,East,97,0.0,5.0,53,0.00,,,0.00,707,weatherlink.com 1.10,2017-07-22 17:14:00,
2017-07-22 10:29:00,76.6,58.0,29.92,North,5,1.0,5.0,52,0.00,,,0.00,738,weatherlink.com 1.10,2017-07-22 17:29:00,
2017-07-22 10:44:00,78.5,57.0,29.91,North,5,1.0,2.0,48,0.00,,,0.00,773,weatherlink.com 1.10,2017-07-22 17:44:00,
2017-07-22 10:59:00,79.1,57.0,29.91,North,5,2.0,4.0,46,0.00,,,0.00,802,weatherlink.com 1.10,2017-07-22 17:59:00,
2017-07-22 11:14:00,80.4,56.0,29.91,NW,305,2.0,4.0,43,0.00,,,0.00,833,weatherlink.com 1.10,2017-07-22 18:14:00,
2017-07-22 11:29:00,81.2,56.0,29.90,NW,304,1.0,3.0,42,0.00,,,0.00,856,weatherlink.com 1.10,2017-07-22 18:29:00,
2017-07-22 11:44:00,84.1,57.0,29.90,NNE,28,3.0,5.0,39,0.00,,,0.00,877,weatherlink.com 1.10,2017-07-22 18:44:00,
2017-07-22 11:59:00,84.7,56.0,29.89,WNW,298,3.0,4.0,38,0.00,,,0.00,893,weatherlink.com 1.10,2017-07-22 18:59:00,
2017-07-22 12:15:00,84.9,57.0,29.89,NNE,18,2.0,6.0,38,0.00,,,0.00,909,weatherlink.com 1.10,2017-07-22 19:15:00,
2017-07-22 12:29:00,85.8,57.0,29.89,NE,36,3.0,6.0,37,0.00,,,0.00,914,weatherlink.com 1.10,2017-07-22 19:29:00,
2017-07-22 12:44:00,86.9,57.0,29.88,NNW,338,1.0,7.0,36,0.00,,,0.00,925,weatherlink.com 1.10,2017-07-22 19:44:00,
2017-07-22 12:59:00,88.1,57.0,29.88,NNW,333,1.0,7.0,35,0.00,,,0.00,926,weatherlink.com 1.10,2017-07-22 19:59:00,
2017-07-22 13:14:00,89.7,56.0,29.87,NNE,12,4.0,9.0,32,0.00,,,0.00,923,weatherlink.com 1.10,2017-07-22 20:14:00,
2017-07-22 13:29:00,90.2,57.0,29.86,North,355,5.0,6.0,32,0.00,,,0.00,914,weatherlink.com 1.10,2017-07-22 20:29:00,
2017-07-22 13:45:00,90.9,56.0,29.86,NNE,13,1.0,8.0,31,0.00,,,0.00,905,weatherlink.com 1.10,2017-07-22 20:45:00,
2017-07-22 14:00:00,92.3,58.0,29.86,NW,310,9.0,9.0,31,0.00,,,0.00,891,weatherlink.com 1.10,2017-07-22 21:00:00,
2017-07-22 14:15:00,92.4,59.0,29.85,NNW,342,3.0,7.0,32,0.00,,,0.00,877,weatherlink.com 1.10,2017-07-22 21:15:00,
2017-07-22 14:30:00,93.4,58.0,29.85,WNW,290,7.0,8.0,30,0.00,,,0.00,860,weatherlink.com 1.10,2017-07-22 21:30:00,
2017-07-22 14:45:00,93.0,56.0,29.84,NW,306,4.0,8.0,29,0.00,,,0.00,842,weatherlink.com 1.10,2017-07-22 21:45:00,
2017-07-22 15:00:00,93.7,55.0,29.84,North,360,2.0,9.0,27,0.00,,,0.00,816,weatherlink.com 1.10,2017-07-22 22:00:00,
2017-07-22 15:15:00,94.9,56.0,29.83,NW,314,6.0,9.0,27,0.00,,,0.00,788,weatherlink.com 1.10,2017-07-22 22:15:00,
2017-07-22 15:30:00,94.9,54.0,29.82,NW,307,4.0,8.0,25,0.00,,,0.00,759,weatherlink.com 1.10,2017-07-22 22:30:00,
2017-07-22 15:45:00,95.3,52.0,29.82,NNW,337,4.0,11.0,23,0.00,,,0.00,726,weatherlink.com 1.10,2017-07-22 22:45:00,
2017-07-22 16:00:00,95.5,52.0,29.82,NNW,337,5.0,9.0,23,0.00,,,0.00,693,weatherlink.com 1.10,2017-07-22 23:00:00,
2017-07-22 16:15:00,96.0,50.0,29.81,North,360,3.0,8.0,21,0.00,,,0.00,654,weatherlink.com 1.10,2017-07-22 23:15:00,
2017-07-22 16:30:00,96.2,50.0,29.80,North,360,0.0,9.0,21,0.00,,,0.00,612,weatherlink.com 1.10,2017-07-22 23:30:00,
2017-07-22 16:45:00,96.7,51.0,29.80,NW,325,5.0,9.0,21,0.00,,,0.00,573,weatherlink.com 1.10,2017-07-22 23:45:00,
2017-07-22 17:00:00,96.5,52.0,29.80,NE,38,2.0,7.0,22,0.00,,,0.00,524,weatherlink.com 1.10,2017-07-23 00:00:00,
2017-07-22 17:15:00,96.4,51.0,29.79,North,360,4.0,10.0,21,0.00,,,0.00,480,weatherlink.com 1.10,2017-07-23 00:15:00,
2017-07-22 17:30:00,96.3,49.0,29.79,NW,323,5.0,10.0,20,0.00,,,0.00,438,weatherlink.com 1.10,2017-07-23 00:30:00,
2017-07-22 17:45:00,95.2,57.0,29.79,North,360,7.0,10.0,28,0.00,,,0.00,390,weatherlink.com 1.10,2017-07-23 00:45:00,